INTELSAT 36 (IS-36) 1 41747U 16053A 21063.20188148 -.00000034 00000-0 00000+0 0 9999 2 41747 0.0174 117.5665 0001534 270.5182 275.2465 1.00269840 16598 INTELSAT 33E (IS-33E) 1 41748U 16053B 21063.05749220 .00000039 00000-0 00000+0 0 9991 2 41748 0.0117 270.5623 0001447 90.5024 241.6283 1.00272058 16857 ARIANE 5 R/B 1 41749U 16053C 21062.30057157 .00000570 00000-0 22022-3 0 9992 2 41749 5.7369 157.0818 7238533 113.2208 334.1204 2.32913598 38162 ARIANE 5 DEB [SYLDA] 1 41750U 16053D 21062.12920749 .00049261 00000-0 89632-2 0 9999 2 41750 6.3183 75.7866 6929050 278.7966 14.5319 2.74222387 41932